[[{"header":{"parameterUnit":"m.s-1","parameterCategory":1,"la1":30.2991,"la2":30.254,"lo1":-89.0895,"lo2":-89.0444,"dy":0.0017,"dx":0.0017,"nx":28,"ny":28,"refTime":"2024-03-24T09:00:00:Z","depth":0,"parameterNumber":2,"parameterNumberName":"U-component_of_WINDS"},"data":[0,0,0,0,0,0,0,0,0,0,0,0,0,0,0,0,0,0,0,0,0,0,0,0,0,0,0,0,0,0,0,0,0,0,0,0,0,0,0,0,0,0,0,0,0,0,0,0,0,0,0,0,0,0,0,0,0,0,0.5245,0.5244,0,0.5175,0.5174,0.5173,0.5129,0.5128,0.5128,0.5128,0.5052,0.505,0.5049,0,0,0,0,0,0,0,0,0,0,0,0,0,0.5337,0.5335,0.5245,0.5244,0.5243,0.5175,0.5174,0.5173,0.5129,0.5128,0.5128,0.5128,0.5053,0.5051,0.5048,0,0,0,0,0,0,0,0,0,0,0,0,0,0.5285,0.5335,0.5245,0.5213,0.5209,0.5175,0.5174,0.5173,0.5129,0.5128,0.5128,0.5128,0.5053,0.5051,0.5048,0.5039,0,0,0.504,0.5039,0,0,0,0,0,0,0,0,0.5288,0.5282,0.5219,0.5215,0.5211,0.516,0.5179,0.5128,0.5129,0.5159,0.5128,0.5128,0.5088,0.5083,0.507,0.5036,0.5033,0.504,0.5038,0.5037,0.5036,0,0,0,0,0,0,0,0.5292,0.5284,0.5217,0.5218,0.5213,0.5201,0.5193,0.5169,0.5127,0.5157,0.5153,0.5146,0.5086,0.5073,0.5068,0.5031,0.504,0.5037,0.5036,0.5035,0.4987,0.4987,0,0,0,0,0,0,0.5301,0.5288,0.5219,0.5215,0.5249,0.52,0.5191,0.5177,0.5127,0.5119,0.5146,0.5144,0.5078,0.5071,0.5065,0.5052,0.5037,0.5035,0.5033,0.4987,0.4987,0.4987,0,0,0,0,0,0,0.5303,0.5295,0.5222,0.525,0.524,0.5199,0.5183,0.5176,0.5163,0.5119,0.5111,0.5141,0.5077,0.5069,0.5047,0.5049,0.5033,0.5031,0.4986,0.4987,0.4987,0.5025,0,0,0,0,0,0,0.5306,0.5296,0.5293,0.5251,0.5239,0.5206,0.5183,0.5175,0.5159,0.5155,0.5112,0.5104,0.5076,0.5051,0.5044,0.5045,0.5029,0.4986,0.4987,0.4987,0.5024,0.5027,0.503,0,0,0,0,0,0.5309,0.5305,0.5293,0.5285,0.5234,0.5206,0.5199,0.5168,0.5159,0.5155,0.5127,0.5105,0.505,0.5049,0.5041,0.5041,0.4986,0.4986,0.4987,0.5022,0.5026,0.503,0,0,0,0,0,0,0.5347,0.5299,0.5285,0.5268,0.5242,0.5199,0.5193,0.5174,0.5148,0.5146,0.5107,0.5098,0.5079,0.5058,0.5058,0.503,0.5015,0.5014,0.5045,0.5048,0.5051,0.5056,0.5027,0,0,0,0,0,0.5354,0.5336,0.5295,0.5283,0.5271,0.5235,0.5221,0.52,0.517,0.5158,0.5129,0.51,0.5076,0.5061,0.5037,0.5021,0.501,0.5017,0.502,0.5023,0.5022,0.5012,0.5015,0.499,0.499,0.499,0,0,0.5366,0.5338,0.5329,0.529,0.5267,0.5249,0.5225,0.5206,0.5192,0.5155,0.5133,0.511,0.5075,0.5057,0.5047,0.5038,0.5027,0.5024,0.5026,0.5024,0.5013,0.5016,0.5018,0.499,0.499,0.499,0,0,0.538,0.5358,0.5346,0.5324,0.5291,0.5267,0.5264,0.5224,0.5209,0.5186,0.5158,0.514,0.51,0.5076,0.5059,0.5067,0.5046,0.506,0.5076,0.5067,0.5069,0.507,0.5073,0.5074,0.5059,0.506,0.506,0,0.54,0.5372,0.5342,0.5325,0.5309,0.5277,0.5265,0.5244,0.5204,0.5193,0.5185,0.5134,0.5108,0.5084,0.5086,0.5073,0.5069,0.5064,0.5071,0.5072,0.5073,0.5075,0.5076,0.5061,0.5061,0.5061,0.5061,0,0.5398,0.538,0.5374,0.5338,0.5321,0.5307,0.5273,0.526,0.5241,0.5217,0.5195,0.5163,0.5132,0.5125,0.5105,0.5098,0.5093,0.5079,0.5063,0.5078,0.5079,0.508,0.5064,0.5064,0.5063,0.5062,0,0,0.5432,0.5382,0.538,0.5364,0.5325,0.5309,0.5294,0.5265,0.5254,0.5228,0.5213,0.5181,0.5167,0.5148,0.5125,0.5118,0.5126,0.5103,0.5102,0.5108,0.5115,0.5127,0.5128,0.5112,0.5112,0.5112,0.5118,0,0.544,0.5412,0.5385,0.5365,0.5347,0.5318,0.5304,0.5278,0.5257,0.5237,0.5213,0.519,0.5174,0.5163,0.5154,0.5127,0.5126,0.5126,0.5097,0.5096,0.5106,0.5129,0.514,0.5147,0.5119,0.5119,0.5119,0,0.5445,0.5422,0.5402,0.5367,0.5358,0.5346,0.5318,0.5301,0.5271,0.5256,0.5236,0.5213,0.5194,0.5181,0.5154,0.5155,0.5141,0.5127,0.5126,0.5121,0.5108,0.5124,0.5149,0.515,0.5119,0.5119,0.5119,0,0.5472,0.5436,0.5419,0.5406,0.5364,0.5357,0.5339,0.5309,0.5294,0.527,0.5259,0.5232,0.5217,0.5197,0.5167,0.516,0.5143,0.5128,0.5129,0.513,0.5126,0.5126,0.5148,0.5119,0.5119,0.5119,0.5118,0,0.5483,0.5472,0.5431,0.5421,0.5407,0.5376,0.5363,0.5342,0.5316,0.53,0.5273,0.5258,0.522,0.5201,0.5177,0.5159,0.5152,0.5139,0.5133,0.5141,0.5143,0.5131,0.5129,0.5119,0.5119,0.5119,0.5119,0,0.551,0.5483,0.5462,0.5425,0.5416,0.5407,0.5375,0.5363,0.5341,0.5322,0.5315,0.5279,0.5256,0.5224,0.519,0.5174,0.5159,0.5149,0.5169,0.5165,0.5168,0.5168,0.5183,0.5183,0.5154,0.5155,0.5155,0,0.5519,0.551,0.5472,0.5461,0.5444,0.5426,0.5411,0.538,0.5366,0.5333,0.5325,0.53,0.5278,0.5241,0.5211,0.5185,0.5175,0.5182,0.517,0.5179,0.5174,0.5175,0.5174,0.5184,0.5184,0.5185,0.5185,0,0.5537,0.5524,0.5505,0.5481,0.5464,0.5443,0.5421,0.5413,0.5377,0.5362,0.5339,0.5322,0.5289,0.5264,0.5234,0.5214,0.5194,0.5189,0.5188,0.5196,0.5208,0.5201,0.5176,0.5189,0.5188,0.5188,0.5188,0.5188,0.5555,0.5545,0.5518,0.5498,0.5478,0.5459,0.5446,0.5423,0.5404,0.5375,0.5358,0.5335,0.5306,0.5265,0.5246,0.5227,0.5219,0.5218,0.5217,0.5217,0.522,0.5212,0.5222,0.5222,0.5222,0.5222,0.5221,0,0.5571,0.5553,0.5534,0.5505,0.5489,0.5473,0.5448,0.5435,0.5416,0.5392,0.5372,0.5345,0.5321,0.529,0.5264,0.5255,0.5245,0.5249,0.5249,0.5245,0.5229,0.5232,0.5258,0.5258,0.5258,0.5258,0.5258,0.5258,0.5578,0.5562,0.5546,0.552,0.5501,0.548,0.5467,0.5449,0.5429,0.5401,0.5382,0.5363,0.5336,0.5308,0.5285,0.5277,0.5268,0.5275,0.5264,0.5249,0.5246,0.5242,0.5246,0.5273,0.5274,0.5281,0.5281,0.5281]},{"header":{"parameterUnit":"m.s-1","parameterCategory":1,"la1":30.2991,"la2":30.254,"lo1":-89.0895,"lo2":-89.0444,"dy":0.0017,"dx":0.0017,"nx":28,"ny":28,"refTime":"2024-03-24T09:00:00:Z","depth":0,"parameterNumber":3,"parameterNumberName":"V-component_of_WINDS"},"data":[0,0,0,0,0,0,0,0,0,0,0,0,0,0,0,0,0,0,0,0,0,0,0,0,0,0,0,0,0,0,0,0,0,0,0,0,0,0,0,0,0,0,0,0,0,0,0,0,0,0,0,0,0,0,0,0,0,0,-4.3836,-4.3837,0,-4.3854,-4.3854,-4.3854,-4.3806,-4.3805,-4.3803,-4.3802,-4.3818,-4.382,-4.3822,0,0,0,0,0,0,0,0,0,0,0,0,0,-4.3761,-4.3763,-4.3836,-4.3837,-4.3837,-4.3854,-4.3854,-4.3854,-4.3806,-4.3805,-4.3803,-4.3801,-4.3818,-4.382,-4.3822,0,0,0,0,0,0,0,0,0,0,0,0,0,-4.3788,-4.3763,-4.3836,-4.3815,-4.3813,-4.3854,-4.3854,-4.3854,-4.3807,-4.3805,-4.3802,-4.38,-4.3817,-4.382,-4.3823,-4.3884,0,0,-4.3831,-4.3832,0,0,0,0,0,0,0,0,-4.3786,-4.3791,-4.3818,-4.3817,-4.3815,-4.3825,-4.3833,-4.3864,-4.3807,-4.3809,-4.3802,-4.3799,-4.3823,-4.3825,-4.3833,-4.3885,-4.3885,-4.3831,-4.3833,-4.3834,-4.3835,0,0,0,0,0,0,0,-4.3785,-4.379,-4.3843,-4.3818,-4.3816,-4.3804,-4.3806,-4.3839,-4.3828,-4.3809,-4.3805,-4.3808,-4.3821,-4.383,-4.3833,-4.3886,-4.3831,-4.3833,-4.3835,-4.3836,-4.399,-4.3992,0,0,0,0,0,0,-4.3786,-4.3788,-4.3843,-4.3844,-4.3795,-4.3808,-4.3809,-4.3824,-4.3828,-4.3826,-4.381,-4.3806,-4.3827,-4.383,-4.3833,-4.3906,-4.3834,-4.3837,-4.3838,-4.3987,-4.399,-4.3993,0,0,0,0,0,0,-4.3784,-4.3791,-4.3842,-4.3815,-4.3821,-4.3811,-4.3829,-4.3826,-4.3835,-4.3829,-4.3826,-4.3821,-4.3825,-4.3829,-4.3872,-4.3906,-4.3838,-4.384,-4.3984,-4.3988,-4.3991,-4.4052,0,0,0,0,0,0,-4.3782,-4.3791,-4.3814,-4.3816,-4.3822,-4.3881,-4.3831,-4.3828,-4.384,-4.3834,-4.3839,-4.3837,-4.3824,-4.3868,-4.3875,-4.3908,-4.3842,-4.3981,-4.3986,-4.399,-4.4047,-4.4057,-4.4066,0,0,0,0,0,-4.378,-4.383,-4.3815,-4.3822,-4.3851,-4.3883,-4.3886,-4.387,-4.3843,-4.3866,-4.3862,-4.3837,-4.3901,-4.3873,-4.388,-4.3915,-4.3979,-4.3985,-4.399,-4.4043,-4.4055,-4.4066,0,0,0,0,0,0,-4.3831,-4.383,-4.3814,-4.3866,-4.3875,-4.3875,-4.3904,-4.3884,-4.39,-4.3895,-4.3873,-4.3875,-4.3922,-4.3922,-4.3891,-4.3975,-4.3935,-4.3942,-4.3973,-4.3985,-4.3994,-4.3993,-4.3845,0,0,0,0,0,-4.3849,-4.3875,-4.3872,-4.3918,-4.3924,-4.3913,-4.3926,-4.3913,-4.3921,-4.3925,-4.3924,-4.3932,-4.3955,-4.397,-4.3989,-4.4047,-4.4047,-4.4074,-4.4084,-4.4092,-4.4098,-4.4129,-4.4142,-4.4011,-4.4011,-4.4011,0,0,-4.3885,-4.3888,-4.3905,-4.3929,-4.3934,-4.3962,-4.3917,-4.3947,-4.3967,-4.3929,-4.397,-4.3969,-4.3978,-4.4028,-4.405,-4.403,-4.4135,-4.4099,-4.4105,-4.4107,-4.4136,-4.4149,-4.416,-4.4014,-4.4014,-4.4013,0,0,-4.3966,-4.397,-4.401,-4.4016,-4.4025,-4.4018,-4.4028,-4.4031,-4.4029,-4.407,-4.4042,-4.4065,-4.4104,-4.4111,-4.412,-4.4204,-4.4182,-4.4211,-4.4262,-4.4292,-4.4303,-4.4312,-4.4343,-4.4354,-4.4218,-4.4218,-4.4218,0,-4.401,-4.4051,-4.4033,-4.4066,-4.4077,-4.4044,-4.4085,-4.4092,-4.4107,-4.4115,-4.4093,-4.4141,-4.4144,-4.4196,-4.4217,-4.4225,-4.4235,-4.4211,-4.4303,-4.4311,-4.432,-4.4349,-4.4361,-4.4221,-4.4221,-4.4221,-4.422,0,-4.4105,-4.4133,-4.4164,-4.4181,-4.4195,-4.4232,-4.4219,-4.4236,-4.4222,-4.4217,-4.4259,-4.4262,-4.4282,-4.4293,-4.4279,-4.4344,-4.4331,-4.4306,-4.4266,-4.4336,-4.4363,-4.4374,-4.4227,-4.4225,-4.4224,-4.4223,0,0,-4.4218,-4.4225,-4.4237,-4.4244,-4.4252,-4.4273,-4.4308,-4.4329,-4.4345,-4.4356,-4.4385,-4.4419,-4.4396,-4.4406,-4.4392,-4.4419,-4.4487,-4.439,-4.439,-4.4409,-4.4559,-4.4579,-4.4592,-4.4472,-4.4474,-4.4476,-4.4559,0,-4.4298,-4.4359,-4.4345,-4.4405,-4.4431,-4.4401,-4.4432,-4.444,-4.4436,-4.4458,-4.4454,-4.4479,-4.4446,-4.4452,-4.4477,-4.4473,-4.4517,-4.4467,-4.4499,-4.4501,-4.4499,-4.4606,-4.4627,-4.4705,-4.4569,-4.4571,-4.4572,0,-4.44,-4.4417,-4.448,-4.4484,-4.4495,-4.4523,-4.4541,-4.4562,-4.4571,-4.4566,-4.4578,-4.456,-4.4595,-4.4554,-4.4602,-4.4568,-4.458,-4.4581,-4.4583,-4.4586,-4.4541,-4.4613,-4.473,-4.4742,-4.4589,-4.4587,-4.4586,0,-4.4478,-4.4516,-4.4559,-4.4566,-4.4572,-4.4592,-4.4596,-4.4602,-4.4616,-4.4632,-4.464,-4.466,-4.4671,-4.4686,-4.4673,-4.4644,-4.4723,-4.4681,-4.4721,-4.4722,-4.4739,-4.4739,-4.4861,-4.4746,-4.4746,-4.4746,-4.4745,0,-4.4569,-4.4609,-4.4594,-4.462,-4.4664,-4.4647,-4.4691,-4.4691,-4.4697,-4.4723,-4.4698,-4.4722,-4.4704,-4.4727,-4.4717,-4.4759,-4.4763,-4.4761,-4.4758,-4.4764,-4.4764,-4.4772,-4.4767,-4.4749,-4.4748,-4.4748,-4.4747,0,-4.4664,-4.4655,-4.47,-4.4702,-4.4704,-4.4737,-4.4738,-4.4763,-4.4758,-4.4791,-4.4798,-4.479,-4.4816,-4.4805,-4.4832,-4.4825,-4.4879,-4.4868,-4.4876,-4.4874,-4.4915,-4.4911,-4.5047,-4.5064,-4.4938,-4.4939,-4.494,0,-4.4723,-4.4753,-4.476,-4.4776,-4.4781,-4.4807,-4.4821,-4.4805,-4.4821,-4.4834,-4.4857,-4.4881,-4.4899,-4.4943,-4.4939,-4.496,-4.495,-4.4996,-4.4953,-4.4958,-4.4952,-4.4951,-4.4954,-4.5005,-4.5006,-4.5007,-4.5008,0,-4.483,-4.4824,-4.4846,-4.4866,-4.4884,-4.4899,-4.4912,-4.4926,-4.4911,-4.493,-4.4957,-4.4971,-4.5,-4.5024,-4.5043,-4.5046,-4.5025,-4.5022,-4.5033,-4.5039,-4.5043,-4.5042,-4.4901,-4.5019,-4.5018,-4.5017,-4.5017,-4.5016,-4.4909,-4.4935,-4.4944,-4.4969,-4.4977,-4.499,-4.5014,-4.5012,-4.5034,-4.5057,-4.5046,-4.5077,-4.5086,-4.5109,-4.5115,-4.5139,-4.5121,-4.5136,-4.514,-4.5144,-4.515,-4.5039,-4.5142,-4.5142,-4.5142,-4.5141,-4.5141,0,-4.5015,-4.502,-4.5043,-4.5062,-4.5082,-4.5061,-4.5075,-4.5093,-4.5121,-4.5131,-4.515,-4.5181,-4.5205,-4.5204,-4.5226,-4.5245,-4.5236,-4.5252,-4.5251,-4.5252,-4.5164,-4.5154,-4.5259,-4.5259,-4.5259,-4.5259,-4.5259,-4.5259,-4.5073,-4.5116,-4.5112,-4.5159,-4.5162,-4.5194,-4.5203,-4.5215,-4.5223,-4.526,-4.528,-4.5279,-4.5284,-4.5307,-4.5328,-4.5327,-4.5336,-4.5355,-4.5351,-4.5269,-4.5258,-4.5247,-4.5237,-4.5357,-4.5358,-4.5436,-4.5437,-4.5438]}]]